This is the latest recevied weather packets stored in our database for station/object EA1EXV-11. If no packets are shown the sender has not sent any weather packets the latest 10 day(s).
| Time | Temp. | Humidity | Pressure | Rain* | Wind** | Luminosity | Snow |
|---|---|---|---|---|---|---|---|
| 1777990819 | 18.89° C | 61% | 1017.4 hPa | - | - | - | - |
| 1777989915 | 17.22° C | 64% | 1017.6 hPa | - | - | - | - |
| 1777989015 | 16.67° C | 65% | 1017.5 hPa | - | - | - | - |
| 1777988115 | 16.11° C | 67% | 1017.4 hPa | - | - | - | - |
| 1777987215 | 15.56° C | 67% | 1017.3 hPa | - | - | - | - |
| 1777986318 | 16.67° C | 67% | 1017.2 hPa | - | - | - | - |
| 1777985414 | 17.22° C | 69% | 1017.2 hPa | - | - | - | - |
| 1777984514 | 17.22° C | 69% | 1017.1 hPa | - | - | - | - |
| 1777983614 | 16.11° C | 71% | 1017.3 hPa | - | - | - | - |
| 1777982714 | 16.11° C | 73% | 1017.3 hPa | - | - | - | - |
| 1777981814 | 17.78° C | 74% | 1017.3 hPa | - | - | - | - |
| 1777980914 | 15.56° C | 75% | 1017.3 hPa | - | - | - | - |
| 1777980014 | 16.67° C | 75% | 1017.4 hPa | - | - | - | - |
| 1777979114 | 17.22° C | 76% | 1017.3 hPa | - | - | - | - |
| 1777978214 | 16.11° C | 78% | 1017.3 hPa | - | - | - | - |
| 1777977318 | 14.44° C | 79% | 1017.4 hPa | - | - | - | - |
| 1777976413 | 14.44° C | 79% | 1017.4 hPa | - | - | - | - |
| 1777975513 | 15° C | 79% | 1017.1 hPa | - | - | - | - |
| 1777974613 | 17.78° C | 80% | 1017.1 hPa | - | - | - | - |
| 1777973713 | 14.44° C | 82% | 1017.1 hPa | - | - | - | - |
| 1777972813 | 13.33° C | 83% | 1017.1 hPa | - | - | - | - |
| 1777971913 | 13.33° C | 83% | 1017 hPa | - | - | - | - |
| 1777971017 | 14.44° C | 84% | 1016.9 hPa | - | - | - | - |
| 1777970113 | 12.22° C | 85% | 1016.9 hPa | - | - | - | - |
| 1777969213 | 11.67° C | 84% | 1016.9 hPa | - | - | - | - |
* Rain since midnight (hover to see other rain measurements)
** Current wind speed in m/s (hover to see current wind gust speed)